Location: Bennemühlen
(52.5740°N, 9.7135°E)
Time: 23:28:29
(UTC+00:00)

SWARM A - Pass Details

Date: 19 May 2025
Orbit: 436 x 441 km, 87.3° (Epoch: 15 June)

Event Time Altitude Azimuth Distance (km) Brightness Sun altitude
Exits shadow 20:49:34 15° 166° (SSE) 1,298 6.0 -10.7°
Maximum altitude 20:52:15 57° 89° (E) 528 4.4 -10.9°
Drops below altitude 10° 20:55:36 10° 10° (N) 1,575 7.8 -11.2°
Sets 20:57:41 0° 6° (N) 2,451 8.9 -11.3°
